Sussex, Wisconsin, United States (53089)
Lat: 43.13N, Lon: 88.22W
Wx Zone: WIZ065
Local Info
Past Weather Observations for Today

NOTE: This archive is for the closest National Weather Service station to Sussex. Information may differ from the station used for current weather conditions.

Click here for Long-term Archive

Time Weather Temperature Dewpoint Humidity Pressure Winds Precip Visibility
18:45
Mostly Cloudy
72°F / 22°C 46°F / 8°C 41% 30.06 in
(1018 mb)
SSE 6.9 mph
(SSE 11 kph)
- 10SM
17:45
Mostly Cloudy
72°F / 22°C 46°F / 8°C 41% 30.09 in
(1019 mb)
SSE 6.9 mph
(SSE 11 kph)
- 10SM
16:45
Partly Cloudy
72°F / 22°C 46°F / 8°C 41% 30.09 in
(1019 mb)
SSE 6.9 mph
(SSE 11 kph)
- 10SM
15:45
Partly Cloudy
72°F / 22°C 46°F / 8°C 41% 30.09 in
(1019 mb)
SSE 6.9 mph
(SSE 11 kph)
- 10SM
14:45
Partly Cloudy
72°F / 22°C 46°F / 8°C 41% 30.12 in
(1020 mb)
SSE 6.9 mph
(SSE 11 kph)
- 10SM
13:45
Partly Cloudy
72°F / 22°C 46°F / 8°C 41% 30.12 in
(1020 mb)
Calm - 10SM
12:45
Partly Cloudy
72°F / 22°C 46°F / 8°C 41% 30.15 in
(1021 mb)
SE 4.6 mph
(SE 7 kph)
- 10SM
11:45
Partly Cloudy
70°F / 21°C 45°F / 7°C 40% 30.18 in
(1022 mb)
SE 4.6 mph
(SE 7 kph)
- 10SM
10:45
Clear
70°F / 21°C 46°F / 8°C 43% 30.18 in
(1022 mb)
NE 6.9 mph
(NE 11 kph)
- 10SM
09:45
Clear
68°F / 20°C 46°F / 8°C 46% 30.21 in
(1023 mb)
E 6.9 mph
(E 11 kph)
- 10SM
08:45
Clear
64°F / 18°C 48°F / 9°C 56% 30.18 in
(1022 mb)
ENE 5.8 mph
(ENE 9 kph)
- 10SM
07:45
Clear
63°F / 17°C 48°F / 9°C 59% 30.21 in
(1023 mb)
ENE 5.8 mph
(ENE 9 kph)
- 10SM
06:45
Clear
61°F / 16°C 52°F / 11°C 72% 30.21 in
(1023 mb)
ENE 5.8 mph
(ENE 9 kph)
- 10SM
05:45
Clear
54°F / 12°C 52°F / 11°C 94% 30.21 in
(1023 mb)
W 8.1 mph
(W 13 kph)
- 10SM
04:45
Clear
52°F / 11°C 48°F / 9°C 88% 30.21 in
(1023 mb)
W 8.1 mph
(W 13 kph)
- 10SM
04:35
Clear
50°F / 10°C 46°F / 8°C 88% 30.21 in
(1023 mb)
Calm - 10SM
04:15
Clear
50°F / 10°C 48°F / 9°C 94% 30.21 in
(1023 mb)
W 3.5 mph
(W 6 kph)
- 10SM
03:55
Clear
50°F / 10°C 46°F / 8°C 88% 30.18 in
(1022 mb)
Calm - 10SM
03:35
Clear
48°F / 9°C 45°F / 7°C 87% 30.18 in
(1022 mb)
Calm - 10SM
03:15
Clear
50°F / 10°C 46°F / 8°C 88% 30.18 in
(1022 mb)
Calm - 10SM
02:55
Clear
50°F / 10°C 46°F / 8°C 88% 30.18 in
(1022 mb)
Calm - 10SM
02:35
Clear
50°F / 10°C 46°F / 8°C 88% 30.18 in
(1022 mb)
Calm - 10SM
02:15
Clear
50°F / 10°C 46°F / 8°C 88% 30.18 in
(1022 mb)
Calm - 10SM
01:55
Clear
50°F / 10°C 45°F / 7°C 82% 30.18 in
(1022 mb)
Calm - 10SM
01:35
Clear
50°F / 10°C 46°F / 8°C 88% 30.18 in
(1022 mb)
Calm - 10SM
01:15
Clear
50°F / 10°C 46°F / 8°C 88% 30.18 in
(1022 mb)
Calm - 10SM
00:55
Clear
50°F / 10°C 46°F / 8°C 88% 30.18 in
(1022 mb)
Calm - 10SM
00:35
Clear
52°F / 11°C 46°F / 8°C 82% 30.18 in
(1022 mb)
Calm - 10SM
00:15
Clear
50°F / 10°C 46°F / 8°C 88% 30.18 in
(1022 mb)
Calm - 10SM
Time Weather Temperature Dewpoint Humidity Pressure Winds Precip Visibility


Weather for websites

WeatherForYou.com, LLC is not responsible for any damages or problems caused by this service. Current weather conditions are obtained from the closest station including government and personal stations which may have varying degrees of accuracy. Weather forecasts are derived from the NOAA NDFD. Like all things, this site belongs to Jesus Christ... He just trusts me to maintain it. If you have any questions or comments email webmaster@weatherforyou.com

Copyright © 2014, WeatherForYou.com LLC. All rights reserved.